TimeCST,TemperatureF,Dew PointF,Humidity,Sea Level PressureIn,VisibilityMPH,Wind Direction,Wind SpeedMPH,Gust SpeedMPH,PrecipitationIn,Events,Conditions,WindDirDegrees,DateUTC
12:10 AM,21.0,10.9,65,30.10,2.5,NW,18.4,-,0.01,Snow,Light Snow,310,2013-12-05 06:10:00
12:19 AM,21.0,10.0,63,30.11,6.0,NW,16.1,24.2,0.01,Snow,Light Snow,310,2013-12-05 06:19:00
12:53 AM,21.0,10.0,63,30.15,7.0,NW,13.8,21.9,0.02,Snow,Light Snow,310,2013-12-05 06:53:00
1:40 AM,19.9,10.9,68,30.14,1.8,WNW,16.1,-,0.01,Snow,Light Snow,300,2013-12-05 07:40:00
1:53 AM,19.9,10.9,68,30.20,3.0,WNW,16.1,26.5,0.01,Snow,Light Snow,300,2013-12-05 07:53:00
2:53 AM,19.9,9.0,62,30.22,10.0,NW,15.0,-,0.00,,Mostly Cloudy,310,2013-12-05 08:53:00
3:53 AM,19.0,9.0,65,30.24,10.0,NW,15.0,-,N/A,,Partly Cloudy,320,2013-12-05 09:53:00
4:53 AM,19.0,7.0,59,30.25,10.0,NNW,15.0,23.0,N/A,,Clear,330,2013-12-05 10:53:00
5:53 AM,17.1,5.0,59,30.27,10.0,NNW,16.1,24.2,N/A,,Clear,330,2013-12-05 11:53:00
6:53 AM,16.0,3.9,59,30.31,10.0,NW,15.0,-,N/A,,Clear,310,2013-12-05 12:53:00
7:53 AM,15.1,3.9,61,30.33,10.0,NW,13.8,-,N/A,,Clear,320,2013-12-05 13:53:00
8:53 AM,16.0,3.9,59,30.35,10.0,NW,13.8,-,N/A,,Clear,320,2013-12-05 14:53:00
9:53 AM,17.1,3.9,56,30.36,10.0,NNW,11.5,19.6,N/A,,Clear,340,2013-12-05 15:53:00
10:53 AM,18.0,5.0,57,30.38,10.0,NNW,13.8,-,N/A,,Clear,330,2013-12-05 16:53:00
11:53 AM,19.0,5.0,54,30.36,10.0,NNW,13.8,-,N/A,,Clear,330,2013-12-05 17:53:00
12:53 PM,19.9,5.0,52,30.33,10.0,NNW,9.2,-,N/A,,Clear,330,2013-12-05 18:53:00
1:53 PM,21.0,5.0,50,30.31,10.0,North,13.8,-,N/A,,Clear,360,2013-12-05 19:53:00
2:53 PM,19.9,5.0,52,30.33,10.0,NNW,8.1,-,N/A,,Mostly Cloudy,330,2013-12-05 20:53:00
3:53 PM,19.9,6.1,55,30.34,10.0,North,8.1,-,N/A,,Overcast,360,2013-12-05 21:53:00
4:53 PM,19.9,5.0,52,30.37,10.0,NNW,9.2,-,N/A,,Overcast,330,2013-12-05 22:53:00
5:53 PM,19.0,5.0,54,30.38,10.0,NNW,9.2,-,N/A,,Overcast,330,2013-12-05 23:53:00
6:53 PM,19.0,3.9,52,30.38,10.0,North,10.4,-,N/A,,Overcast,350,2013-12-06 00:53:00
7:53 PM,19.0,3.0,50,30.40,10.0,North,8.1,-,N/A,,Mostly Cloudy,350,2013-12-06 01:53:00
8:53 PM,18.0,3.0,52,30.42,10.0,North,10.4,-,N/A,,Overcast,350,2013-12-06 02:53:00
9:53 PM,18.0,3.0,52,30.44,10.0,North,9.2,-,N/A,,Overcast,360,2013-12-06 03:53:00
10:53 PM,18.0,3.0,52,30.45,10.0,North,12.7,-,N/A,,Overcast,360,2013-12-06 04:53:00
11:53 PM,18.0,3.0,52,30.47,10.0,North,11.5,-,N/A,,Overcast,10,2013-12-06 05:53:00